Location: Unspecified
(40.7945°N, 111.1337°W)
Time: 05:27:36
(UTC-06:00)

Vanguard 1 - Pass Details

Date: 24 June 2019
Orbit: 653 x 3830 km, 34.3° (Epoch: 20 July)

Event Time Altitude Azimuth Distance (km) Brightness Sun altitude
Exits shadow 00:16:06 20° 131° (SE) 5,626 13.4 -23.7°
Drops below altitude 10° 00:25:18 10° 101° (E) 5,803 13.7 -24.2°
Sets 00:30:50 0° 86° (E) 6,318 14.1 -24.5°
